Regional Weather Roundup
Issued by NWS Upton, NY

Current Version | Previous Version | Text Only | Print | Product List | Glossary Off
Versions: 1 2 3 4 5 6 7 8 9 10 11 12 13 14 15 16 17 18 19 20 21 22 23 24 25 26 27
000 ASUS41 KOKX 241808 RWROKX REGIONAL WEATHER ROUNDUP NATIONAL WEATHER SERVICE NEW YORK NY 200 PM EDT FRI MAR 24 2017 NOTE: "FAIR" INDICATES FEW OR NO CLOUDS BELOW 12,000 FEET WITH NO SIGNIFICANT WEATHER AND/OR OBSTRUCTIONS TO VISIBILITY. NYZ071-072-176-178-NJZ106-104-241900- NEW YORK CITY METRO AREA CITY SKY/WX TMP DP RH WIND PRES REMARKS Central Park CLOUDY 46 28 49 VRB7G21 30.28F Wall St Helipt CLOUDY 46 28 49 SW13G20 30.28F LaGuardia APRT LGT RAIN 48 26 42 SW18G25 30.27F Kennedy INTL LGT RAIN 44 35 70 S20 30.31F Breezy Point N/A 41 N/A N/A S13 N/A Newark/Liberty CLOUDY 47 28 47 SW15G24 30.27F Teterboro LGT RAIN 45 30 55 SW13G21 30.26F $$ NYZ177-179-078>081-241900- LONG ISLAND NEW YORK CITY SKY/WX TMP DP RH WIND PRES REMARKS Jones Beach N/A 43 N/A N/A S15G23 N/A Matinecock PT NOT AVBL Farmingdale CLOUDY 45 32 60 SW17G24 30.30F MacArthur/ISP CLOUDY 46 29 51 S20G30 30.29F Shirley CLOUDY 44 34 67 S21G28 30.30F Westhampton CLOUDY 46 30 53 S17G25 30.32F East Hampton CLOUDY 45 31 59 SW18G24 30.30F Montauk N/A 44 32 62 S12G23 30.32F $$ NYZ052-065-067-241900- HUDSON VALLEY CITY SKY/WX TMP DP RH WIND PRES REMARKS White Plains LGT RAIN 42 33 70 S7 30.24F Newburgh CLOUDY 37 32 81 SW12 30.26F WCI 30 Montgomery CLOUDY 38 33 82 SW3 30.23F Poughkeepsie CLOUDY 40 27 59 SW10G16 30.25F WCI 33 Albany CLOUDY 38 25 59 S15G24 30.13F WCI 29 $$ NJZ001-105-106-008-010-013-015-019>022-104-241900- NEW JERSEY CITY SKY/WX TMP DP RH WIND PRES REMARKS Newark/Liberty CLOUDY 47 28 47 SW15G24 30.27F Teterboro LGT RAIN 45 30 55 SW13G21 30.26F Caldwell CLOUDY 44 29 55 SW9 30.26F Somerville CLOUDY 47 29 49 VRB5 30.25F Linden CLOUDY 47 26 43 W6 30.28F Sussex CLOUDY 39 35 86 SW6 30.23F WCI 35 Andover N/A 40 33 76 VRB5 30.23F Trenton CLOUDY 49 29 46 SW10G20 30.28F Millville CLOUDY 55 31 39 SW13G21 30.33F Atlantic City CLOUDY 55 24 30 SW17G26 30.33F Wrightstown CLOUDY 52 28 39 SW16 30.27F Toms River CLOUDY 54 26 34 SW21G26 30.29F Belmar CLOUDY 53 23 31 SW12G25 30.28F $$ PAZ047>061-062-071-241900- EASTERN PENNSYLVANIA CITY SKY/WX TMP DP RH WIND PRES REMARKS Philadelphia CLOUDY 55 29 36 SW22G30 30.29F Allentown CLOUDY 47 29 49 SW14 30.27F Scranton MOSUNNY 41 34 76 SW8 30.18F $$ CTZ002-004>006-009-010-012-RIZ004-006-007-MAZ004-011-015-241900- SOUTHERN NEW ENGLAND IN CT CITY SKY/WX TMP DP RH WIND PRES REMARKS Bradley INTL CLOUDY 39 31 72 S9 30.24F WCI 33 Hartford CLOUDY 41 29 62 S13G24 30.25F Danbury CLOUDY 42 27 55 SW17G26 30.24F Wtrbury/Oxford CLOUDY 41 23 48 SW7G20 30.23F Bridgeport CLOUDY 45 31 58 SW13 30.28F Meriden CLOUDY 43 27 53 S14G26 30.26F New Haven CLOUDY 42 31 64 SW9 30.28F Chester NOT AVBL Groton LGT RAIN 42 33 70 SW17 30.30F Wilimantic CLOUDY 42 28 57 S15G21 30.27F IN RI CITY SKY/WX TMP DP RH WIND PRES REMARKS Providence LGT RAIN 43 27 53 SW22G35 30.28F Block Island CLOUDY 44 33 65 S21 30.31F Westerly LGT RAIN 45 33 63 SW15G23 30.31F IN MA CITY SKY/WX TMP DP RH WIND PRES REMARKS Boston LGT RAIN 36 33 89 S18 30.26F WCI 26 Worcester LGT RAIN 34 27 75 S15G22 30.19F WCI 24 Westfield CLOUDY 37 30 75 S12 30.20F WCI 29 Provincetown CLOUDY 39 30 70 S14G25 30.33F WCI 31 Nantucket CLOUDY 40 30 67 S17 30.39F WCI 31 $$ ANZ330-335-338-340-345-350-353-355-241900- COASTAL MARINE OBSERVATIONS STATION/POSITION TIME SKY/WX TEMP WIND PRES VSBY WAVE AIR SEA DIR/SP/G HT/PER (UTC) (F) (DEG/KT/KT) (MB) (MI) (FT/S) NY HARB ENTRANCE 1650 42 41 200/ 21/ 25 1027.7 5/ 5 20 S FIRE ISLAND 1750 43 40 200/ 17/ 21 1026.7 5/ 6 GREAT SOUTH BAY NOT AVBL 23 SSW MONTAUK P 1650 43 42 1029.9 5/ 6 15 E BARNEGAT LI 1730 42 N/A 4/ 5 HUDSON CANYON 1650 46 44 210/ 16/ 21 1030.6 4/ 5 KINGS POINT 1742 43 38 1025.2 EXECUTION ROCKS NOT AVBL CENTRAL LI SOUND 1730 42 200/ 17/ 21 N/A 3/ 4 EASTERN LI SOUND NOT AVBL ROBBINS REEF 1748 47 210/ 12/ 18 1025.7 $$ >>>>>>>>>>>>>>>>>>>>>>>>>>>> KEY <<<<<<<<<<<<<<<<<<<<<<<<<<< > < > SKY/WX - Sky Condition/Present Weather < > TMP - Temperature in Fahrenheit < > DP - Dew Point in Fahrenheit < > RH - Relative Humidity in Percent < > WIND - Direction (from) and Speed in MPH < > PRES - Mean Sea Level Pressure (inches of Hg) < > WCI - Wind Chill Index < > VSB - VISIBILITY IN MILES < > HX - HEAT INDEX < > TC - TEMPERATURE IN CELSIUS < > VRB - VARIABLE WIND DIRECTION < > < >>>>>>>>>>>>>>>>>>>>>>>>>>>> KEY <<<<<<<<<<<<<<<<<<<<<<<<<<<

USA.gov is the U.S. government's official web portal to all federal, state and local government web resources and services.